Weather History for Andover, NJ

Change the Weather History Date:

Wednesday, February 6, 2013

  Actual Average (KFWN) Record (KFWN)
Temperature  
Mean Temperature 30 °F -  
Max Temperature 37 °F 32 °F 66 °F (1991)
Min Temperature 19 °F 12 °F -9 °F (1978)
Degree Days  
Heating Degree Days 35    
Moisture  
Dew Point 18 °F    
Average Humidity 66    
Maximum Humidity 92    
Minimum Humidity 40    
Precipitation  
Precipitation 0.00 in - - ()
Sea Level Pressure  
Sea Level Pressure 30.14 in    
Wind  
Wind Speed 2 mph (NW)    
Max Wind Speed 9 mph    
Max Gust Speed 17 mph    
Averages and records for this station are not official NWS values.
T = Trace of Precipitation, MM = Missing Value Source: NWS Daily Summary

Daily Weather History Graph

Daily Weather History Graph

Search for Another Location

Airport:

Trip Planner

Search our weather history database for the weather conditions in past years. The results will help you decide how hot, cold, wet, or windy it might be!

Date:

Astronomy

Feb. 06, 2013 Rise Set
Actual Time 7:04 AM EST 5:22 PM EST
Civil Twilight 6:35 AM EST 5:51 PM EST
Nautical Twilight 6:02 AM EST 6:23 PM EST
Astronomical Twilight 5:30 AM EST 6:56 PM EST
Moon 3:46 AM EST (2/6) 1:37 PM EST (2/6)
Length of Visible Light 11h 15m
Length of Day
10h 18m
Waning Crescent, 17% of the Moon is Illuminated
Feb 6
Waning Crescent
Feb 10
New
Feb 17
First Quarter
Feb 25
Full
Mar 4
Last Quarter

Hourly Weather History & Observations

Time (EST) Temp. Windchill Dew Point Humidity Pressure Visibility Wind Dir Wind Speed Gust Speed Precip Events Conditions
12:54 AM 27.0 °F - 25.0 °F 92% 29.94 in - Calm Calm - N/A   Unknown
1:54 AM 28.0 °F - 25.0 °F 88% 29.94 in - Calm Calm - N/A   Unknown
2:54 AM 28.0 °F 24.2 °F 25.0 °F 88% 29.94 in - SW 3.5 mph - N/A   Unknown
3:54 AM 27.0 °F 23.0 °F 25.0 °F 92% 29.96 in - Variable 3.5 mph - N/A   Unknown
4:54 AM 28.0 °F - 25.0 °F 88% 29.98 in - Calm Calm - N/A   Unknown
5:54 AM 26.1 °F - 23.0 °F 88% 30.01 in - Calm Calm - N/A   Unknown
6:54 AM 25.0 °F - 21.9 °F 88% 30.02 in - Calm Calm - N/A   Unknown
7:54 AM 23.0 °F - 21.0 °F 92% 30.08 in - Calm Calm - N/A   Unknown
8:54 AM 30.0 °F 25.2 °F 23.0 °F 75% 30.09 in - SW 4.6 mph - N/A   Unknown
9:54 AM 30.9 °F 26.2 °F 21.0 °F 67% 30.12 in - WSW 4.6 mph - N/A   Unknown
10:54 AM 33.1 °F 30.0 °F 21.0 °F 61% 30.11 in - West 3.5 mph - N/A   Unknown
11:54 AM 34.0 °F 27.2 °F 17.1 °F 50% 30.12 in - NW 8.1 mph 17.3 mph N/A   Unknown
12:54 PM 35.1 °F 27.9 °F 18.0 °F 50% 30.13 in - WNW 9.2 mph - N/A   Unknown
1:54 PM 36.0 °F 31.1 °F 19.0 °F 50% 30.13 in - Variable 5.8 mph - N/A   Unknown
2:54 PM 37.0 °F 30.4 °F 18.0 °F 46% 30.15 in - NNW 9.2 mph - N/A   Unknown
3:54 PM 36.0 °F 33.3 °F 14.0 °F 41% 30.18 in - Variable 3.5 mph - N/A   Unknown
4:54 PM 34.0 °F 28.0 °F 12.0 °F 40% 30.21 in - North 6.9 mph - N/A   Unknown
5:54 PM 32.0 °F 28.7 °F 12.0 °F 44% 30.26 in - Variable 3.5 mph - N/A   Unknown
6:54 PM 28.9 °F 25.2 °F 12.9 °F 51% 30.29 in - Variable 3.5 mph - N/A   Unknown
7:54 PM 27.0 °F 23.0 °F 12.0 °F 53% 30.33 in - North 3.5 mph - N/A   Unknown
8:54 PM 25.0 °F 20.7 °F 10.9 °F 55% 30.34 in - North 3.5 mph - N/A   Unknown
9:54 PM 23.0 °F - 10.9 °F 60% 30.36 in - Calm Calm - N/A   Unknown
10:54 PM 24.1 °F - 8.1 °F 51% 30.37 in - Calm Calm - N/A   Unknown
11:54 PM 19.9 °F - 10.0 °F 65% 30.38 in - Calm Calm - N/A   Unknown